This is the latest recevied weather packets stored in our database for station/object KB3AWQ. If no packets are shown the sender has not sent any weather packets the latest 10 day(s).
| Time | Temp. | Humidity | Pressure | Rain* | Wind** | Luminosity | Snow |
|---|---|---|---|---|---|---|---|
| 1788043766 | 24.44° C | 63% | 1022.3 hPa | 0 mm | - | 32 W/m² | - |
| 1788043466 | 24.44° C | 62% | 1022.4 hPa | 0 mm | - | 33 W/m² | - |
| 1788043166 | 24.44° C | 60% | 1022.3 hPa | 0 mm | - | 35 W/m² | - |
| 1788042866 | 24.44° C | 59% | 1022.2 hPa | 0 mm | - | 42 W/m² | - |
| 1788042566 | 24.44° C | 59% | 1022.2 hPa | 0 mm | - | 50 W/m² | - |
| 1788042266 | 24.44° C | 57% | 1022.2 hPa | 0 mm | - | 50 W/m² | - |
| 1788041966 | 25° C | 58% | 1022.5 hPa | 0 mm | - | 50 W/m² | - |
| 1788041666 | 25° C | 57% | 1022.6 hPa | 0 mm | - | 46 W/m² | - |
| 1788041366 | 25° C | 58% | 1022.6 hPa | 0 mm | - | 42 W/m² | - |
| 1788041066 | 25° C | 52% | 1022.7 hPa | 0 mm | - | 45 W/m² | - |
| 1788040767 | 25° C | 53% | 1022.8 hPa | 0 mm | - | 48 W/m² | - |
| 1788040466 | 25° C | 52% | 1022.7 hPa | 0 mm | - | 52 W/m² | - |
| 1788040166 | 25° C | 53% | 1022.7 hPa | 0 mm | - | 51 W/m² | - |
| 1788039866 | 25° C | 51% | 1022.8 hPa | 0 mm | - | 50 W/m² | - |
| 1788039567 | 25° C | 52% | 1022.9 hPa | 0 mm | - | 50 W/m² | - |
| 1788039266 | 25.56° C | 51% | 1022.9 hPa | 0 mm | - | 50 W/m² | - |
| 1788038966 | 25.56° C | 51% | 1023 hPa | 0 mm | - | 59 W/m² | - |
| 1788038667 | 25° C | 49% | 1023 hPa | 0 mm | - | 90 W/m² | - |
| 1788038366 | 25° C | 50% | 1023 hPa | 0 mm | - | 62 W/m² | - |
| 1788038066 | 25° C | 48% | 1023 hPa | 0 mm | - | 113 W/m² | - |
| 1788037766 | 25.56° C | 47% | 1023.1 hPa | 0 mm | - | 84 W/m² | - |
| 1788037467 | 25.56° C | 47% | 1023.2 hPa | 0 mm | - | 66 W/m² | - |
| 1788037167 | 25.56° C | 47% | 1023.1 hPa | 0 mm | - | 61 W/m² | - |
| 1788036866 | 25.56° C | 47% | 1023 hPa | 0 mm | - | 72 W/m² | - |
| 1788036566 | 25.56° C | 46% | 1023 hPa | 0 mm | - | 119 W/m² | - |
* Rain latest hour (hover to see other rain measurements)
** Current wind speed in m/s (hover to see current wind gust speed)